judi online

Jackpot

Texas Poker Multi Jackpot System

Kini Telah hadir Jackpot SUPER ROYAL FLUSH

Kini Telah hadir Jackpot 2000 (khusus table VIP keatas).

Ikutilah global jackpot yang tersedia di system kami, dengan system jackpot terbaru dan pertama di indonesia, anda dapat membeli jackpot dengan harga 100 rupiah saja dan menangkan hadiahnya hingga puluhan juta rupiah.

Jackpot bukanlah suatu keharusan untuk dibeli, namun kami memberikan suatu fitur tambahan untuk member tercinta dari www.pokerwaw.net.

Terdapat tiga pilihan harga jackpot yang bisa anda beli yaitu :100,500,1000 dan 2000(khusus table VIP Keatas) rupiah.

Hadiah dari Multi jackpot system www.pokerwaw.net

  1. full house x 10 harga jackpot yang anda beli.
      (contoh:anda membeli 1000 maka:1000 X10 = 10.000)
  2. four of kind x 250 harga jackpot yang anda beli
      (contoh:anda membeli 1000 maka:1000 X250 = 250.000)
  3. Straight flush x 1200
      (contoh:anda membeli 1000 maka:1000 X1200 = 1.200.000)
  4. Royal flush x 10000 harga jackpot yang anda beli
      (contoh:anda membeli 1000 maka:1000 X10000 = 10.000.000)
  5. SUPER ROYAL FLUSH x 30000 harga jackpot yang anda beli
      (contoh:anda membeli 1000 maka:1000 X30000 = 30.000.000)

Kondisi kartu

  1. full house adalah kondisi kartu dimana kartu anda dan kartu tengah dengan total 7 kartu bisa mendapatkan nilai 5 kartu dengan kombinasi 1 tris(three of kind) dan 1 pair, contoh 3 kartu 10 dan 2 kartu 5
  2. Four of kind adalah kondisi kartu dimana kartu anda dan kartu tengah dengan total 7 kartu bisa mendapatkan nilai 5 kartu dengan kombinasi 4 kartu yang sama jumlah dan 1 kartu apapun juga contoh anda mendapatkan 4 buah kartu angka 3 dan 1 kartu apapun.
  3. Staright flush adalah kondisi kartu dimana kartu anda dan kartu tengah dengan total 7 kartu bisa mendapatkan nilai 5 kartu dengan kombinasi seri / staright dengan kembang yang sama contoh : urutan kartu dari angka 5, 6, 7, 8 , 9 10 dengan kembang yg sama misalnya as hati
  4. Royal flush adalah kondisi kartu dimana kartu anda dan kartu tengah dengan total 7 kartu bisa mendapatkan nilai 5 kartu dengan kombinasi seri / staright dengan kembang yang sama tetapi kartu tersebut haruslah dimulai dari 10. contoh 10, Queen, Jack, King dan aces dengan kembang yang sama
  5. Super Royal flush adalah kondisi kartu dimana Kedua kartu anda digabung dengan 3 kartu pertama meja haruslah royal flush. contoh kartu anda 10,Queen kembang sama dan 3 kartu pertama meja adalah Jack, King dan aces dengan kembang yang sama

Demikian adalah penjelasan dari Multi Jackpot www.pokerwaw.net terima kasih dan selamat bermain salam hoki dari kami

Texas Poker Jackpot Winner

TOP SUPER ROYAL FLUSH
No.TanggalNamaPriceWin
122/06 00:16YAKUZA_27Super Royal flush15,000,000
221/06 23:57IZ625605Super Royal flush15,000,000
321/06 22:44RUBINI8Super Royal flush3,000,000
421/06 22:11CERKYSuper Royal flush6,000,000
521/06 21:35AAKDEDY15Super Royal flush15,000,000
TOP ROYAL FLUSH
No.TanggalNamaPriceWin
122/06 04:44W4HJOERoyal flush2,000,000
222/06 04:34MAYAAYURoyal flush10,000,000
322/06 04:11X3IR6PQNPRRoyal flush10,000,000
422/06 03:47NAAAAHRoyal flush10,000,000
522/06 03:45AREX57Royal flush10,000,000
TOP STRAIGHT FLUSH
No.TanggalNamaPriceWin
122/06 04:45CERPE12Straight Flush600,000
222/06 04:43SARUNG1908Straight Flush240,000
322/06 04:43JEJE001Straight Flush600,000
422/06 04:41GLENON_TEHStraight Flush240,000
522/06 04:36AB1SSLAG11Straight Flush240,000
LATEST JACKPOT
No.TanggalNamaPriceWin
122/06 04:45MAMAM7777Full House10,000
222/06 04:45K3B0AJ3Full House2,000
322/06 04:45OMPRATAMAFull House5,000
422/06 04:45ALEXBOY88Full House5,000
522/06 04:45EDRE22Full House2,000
622/06 04:45TEMPEKU123Full House10,000
722/06 04:45VONIX77Full House2,000
822/06 04:45MAKAU88Full House1,000
922/06 04:45IPING_IPINFull House1,000
1022/06 04:45TRUCK15Full House1,000
1122/06 04:45RAH43Full House1,000
1222/06 04:45VINOBABER8Full House500
1322/06 04:45PELAKOR792Full House2,000
1422/06 04:45FUUFFUFUFFull House5,000
1522/06 04:45RADENPAFull House1,000
1622/06 04:45TOMY8686Full House2,000
1722/06 04:45MILA777Full House20,000
1822/06 04:45VODCABLUE1Full House1,000
1922/06 04:45RADENBOMBAFull House2,000
2022/06 04:45C4K_L0NT3Full House5,000
2122/06 04:45HENTAI9Full House5,000
2222/06 04:45CERPE12Straight Flush600,000
2322/06 04:45KAPPY45Full House5,000
2422/06 04:45KJDD3CC9TNFull House10,000
2522/06 04:45REDDOG88Full House10,000
2622/06 04:45DONACOPOKEFull House10,000
2722/06 04:45DHAN98Full House10,000
2822/06 04:45DWBTARD1Full House5,000
2922/06 04:45CPH9Full House1,000
3022/06 04:45YAQUL99Full House10,000
3122/06 04:45QUENAS8888Full House10,000
3222/06 04:45AA_GEMBELFull House10,000
3322/06 04:45CHAN_18Full House5,000
3422/06 04:45USE8888Full House1,000
3522/06 04:45BASOSAPI28Full House5,000
3622/06 04:45BAJU03Full House10,000
3722/06 04:45ZOLDYCK27Full House5,000
3822/06 04:45ICANFAR01Full House1,000
3922/06 04:45HASANALI86Full House10,000
4022/06 04:45SNI34053Full House2,000
4122/06 04:45JEK0009Full House1,000
4222/06 04:44KHOLON88Full House5,000
4322/06 04:44PAKE_HOKY2Four Of A Kind125,000
4422/06 04:44JAGU4R11Full House5,000
4522/06 04:44NICHEL99Full House2,000
4622/06 04:44DESTI55Full House2,000
4722/06 04:44AD4442Full House10,000
4822/06 04:44PIMPMYRIDEFull House10,000
4922/06 04:44A8PVHHCEXMFull House5,000
5022/06 04:44QTQSBUUZQ5Full House2,000

Domino Multi Jackpot System

Ikutilah global jackpot yang tersedia di system kami, dengan system jackpot terbaru dan pertama di indonesia, anda dapat membeli jackpot dengan harga 100 rupiah saja dan menangkan hadiahnya hingga puluhan juta rupiah.

Jackpot bukanlah suatu keharusan untuk dibeli, namun kami memberikan suatu fitur tambahan untuk member tercinta dari www.pokerwaw.net.

Terdapat tiga pilihan harga jackpot yang bisa anda beli yaitu :100,500 dan 1000 rupiah.

Hadiah dari Multi jackpot system www.pokerwaw.net

  1. Murni Kecil x 50 harga jackpot yang anda beli.
      (contoh:anda membeli 1000 maka:1000 X 50 = 50.000)
  2. Murni Besar x 50 harga jackpot yang anda beli
      (contoh:anda membeli 1000 maka:1000 X 50 = 50.000)
  3. BALAK x 100 harga jackpot yang anda beli
      (contoh:anda membeli 1000 maka:1000 X 100 = 100.000)
  4. ENAM DEWA x 6666 harga jackpot yang anda beli
      (contoh:anda membeli 1000 maka:1000 X 6666 = 6.666.000)

Demikian adalah penjelasan dari Multi Jackpot www.pokerwaw.net terima kasih dan selamat bermain salam hoki dari kami

Domino Jackpot Winner

TOP ENAM DEWA
No.TanggalNamaPriceWin
122/06 04:33AZHA85murni enam3,333,000
222/06 04:24AMMARRmurni enam6,666,000
322/06 04:18DEKSANGKEmurni enam6,666,000
422/06 03:51I2YXFK1OEYmurni enam3,333,000
522/06 01:19SADENG7263murni enam6,666,000
TOP BALAK
No.TanggalNamaPriceWin
122/06 04:45GWY1ZPCTEZbalak100,000
222/06 04:44M4SBOY09balak10,000
322/06 04:41SJPOKER035balak10,000
422/06 04:38JING7263balak100,000
522/06 04:34D2E56FE4balak100,000
LATEST JACKPOT
No.TanggalNamaPriceWin
122/06 04:45GWY1ZPCTEZbalak100,000
222/06 04:44M4SBOY09balak10,000
322/06 04:43MBRODOL99murni besar50,000
422/06 04:41SJPOKER035balak10,000
522/06 04:41ATV4ZIQ813murni kecil50,000
622/06 04:41DWBTUSEI45murni besar50,000
722/06 04:41RUDISPSImurni kecil5,000
822/06 04:40NYOMBIXmurni kecil25,000
922/06 04:38JING7263balak100,000
1022/06 04:37OTRDULlucky992,500
1122/06 04:37ARJUN490murni kecil50,000
1222/06 04:37AREGHA28lucky9950,000
1322/06 04:36ARDHIA89lucky9925,000
1422/06 04:36BEBEC98murni kecil50,000
1522/06 04:34RATTIH99murni besar25,000
1622/06 04:34D2E56FE4balak100,000
1722/06 04:33ABABAK24balak50,000
1822/06 04:33AZHA85murni enam3,333,000
1922/06 04:33NAYNEY95murni besar50,000
2022/06 04:32IRWANNbalak100,000
2122/06 04:31EKEKELENGmurni besar25,000
2222/06 04:31MOLDING12murni besar25,000
2322/06 04:31DANIPKP123murni kecil50,000
2422/06 04:30WANUEKmurni kecil50,000
2522/06 04:29DEDEK0705murni kecil50,000
2622/06 04:28ERWINJUANDmurni besar50,000
2722/06 04:27BOB_IMmurni besar50,000
2822/06 04:25KEMANAOOlucky9910,000
2922/06 04:24AMMARRmurni enam6,666,000
3022/06 04:22CHAKI303lucky9950,000
3122/06 04:22BEBEC98murni besar50,000
3222/06 04:21COKMA12TELmurni kecil5,000
3322/06 04:21JPT3399murni besar5,000
3422/06 04:20DAMOM22lucky9925,000
3522/06 04:20RSUD87murni besar50,000
3622/06 04:20E08D23A0murni besar5,000
3722/06 04:20GARUGAMUDAmurni besar50,000
3822/06 04:19DEKSANGKEmurni besar50,000
3922/06 04:19BOB_IMbalak100,000
4022/06 04:18DEKSANGKEmurni enam6,666,000
4122/06 04:17CLARA088murni besar50,000
4222/06 04:15ALUMPAS001balak50,000
4322/06 04:13E08D23A0balak10,000
4422/06 04:12ANJING9Smurni kecil50,000
4522/06 04:11ZUWARmurni besar50,000
4622/06 04:10PA1604balak50,000
4722/06 04:09B5D11murni besar50,000
4822/06 04:08ABOE0610murni besar50,000
4922/06 04:07BOSGVSbalak50,000
5022/06 04:07ARDHIA89murni kecil5,000

Ceme Multi Jackpot System

Jackpot dilihat dari gabungan kartu pemain dengan kartu bandar. Bandar harus membeli jackpot sebanyak jumlah player yang sedang duduk. Sebagai contoh bila terdapat 3 pemain duduk bermain, dan bandar memutuskan untuk membeli jackpot Rp 1.000, maka pada periode tersebut bandar akan membeli jackpot sebanyak 3xRp1.000 = Rp3.000.

Jackpot bukanlah suatu keharusan untuk dibeli, namun kami memberikan suatu fitur tambahan untuk member tercinta dari www.pokerwaw.net.

Terdapat tiga pilihan harga jackpot yang bisa anda beli yaitu :100,500 dan 1000 rupiah.

Hadiah dari Multi jackpot system www.pokerwaw.net

  1. Murni Kecil x 50 harga jackpot yang anda beli.
      (contoh:anda membeli 1000 maka:1000 X 50 = 50.000)
  2. Murni Besar x 50 harga jackpot yang anda beli
      (contoh:anda membeli 1000 maka:1000 X 50 = 50.000)
  3. BALAK x 200 harga jackpot yang anda beli
      (contoh:anda membeli 1000 maka:1000 X 200 = 200.000)
  4. ENAM DEWA x 6666 harga jackpot yang anda beli
      (contoh:anda membeli 1000 maka:1000 X 6666 = 6.666.000)

Demikian adalah penjelasan dari Multi Jackpot www.pokerwaw.net terima kasih dan selamat bermain salam hoki dari kami

Ceme Jackpot Winner

TOP ENAM DEWA
No.TanggalNamaPriceWin
122/06 04:34INESQ22murni enam3,333,000
222/06 04:15ASTAGILAmurni enam6,666,000
322/06 04:15BOYSGO99murni enam666,600
422/06 04:07THUNK007murni enam6,666,000
522/06 04:00CROCC9FAW8murni enam6,666,000
TOP BALAK
No.TanggalNamaPriceWin
122/06 04:44BRING650balak200,000
222/06 04:44CJ899balak200,000
322/06 04:44SODOR_86balak200,000
422/06 04:44JASYARAbalak20,000
522/06 04:44DWBTG88957balak20,000
LATEST JACKPOT
No.TanggalNamaPriceWin
122/06 04:45MALA04murni besar50,000
222/06 04:45JIMILIN28murni kecil5,000
322/06 04:45MASBLOEEmurni kecil25,000
422/06 04:45HOKKYMBAHmurni kecil50,000
522/06 04:45AFRIDI1234murni kecil5,000
622/06 04:45IDK896664murni kecil25,000
722/06 04:45ADUHAIJPmurni besar50,000
822/06 04:44BRENGOSS03murni kecil50,000
922/06 04:44LK4DSAPEXmurni besar5,000
1022/06 04:44BRING650balak200,000
1122/06 04:44CJ899balak200,000
1222/06 04:44SODOR_86balak200,000
1322/06 04:44TRA2125murni kecil25,000
1422/06 04:44MUNAFIKLOmurni kecil50,000
1522/06 04:44MRJ0K3Rmurni besar50,000
1622/06 04:44AWEFmurni besar25,000
1722/06 04:44FAJAR041murni kecil50,000
1822/06 04:44O9BA34HCP3murni kecil25,000
1922/06 04:44HIKABO_38murni kecil25,000
2022/06 04:44SINAL888murni besar50,000
2122/06 04:44K4R14N4_murni besar50,000
2222/06 04:44KETIP17murni kecil5,000
2322/06 04:44SEREN321murni kecil25,000
2422/06 04:44JASYARAbalak20,000
2522/06 04:44DWBTG88957balak20,000
2622/06 04:44TESSOmurni besar50,000
2722/06 04:44MURRAY89murni besar25,000
2822/06 04:44JAKA5000balak20,000
2922/06 04:44GRANITA350murni kecil5,000
3022/06 04:44F6B063F5murni kecil5,000
3122/06 04:44DARDOR77murni besar50,000
3222/06 04:44PUO999balak200,000
3322/06 04:43FRENZHOKImurni kecil50,000
3422/06 04:43HAMSURI5murni kecil50,000
3522/06 04:43REXLONImurni kecil5,000
3622/06 04:43ADUHAIJPmurni kecil50,000
3722/06 04:43SUPERSKOPmurni kecil50,000
3822/06 04:43BONEFARHANbalak20,000
3922/06 04:43JOYKROMOmurni kecil50,000
4022/06 04:43DASMAN90murni kecil50,000
4122/06 04:43RESTIANA27murni besar5,000
4222/06 04:43DWBTGEND49murni kecil25,000
4322/06 04:43ABDUL272murni kecil50,000
4422/06 04:42OINK1999murni kecil25,000
4522/06 04:42JIMILIN28murni kecil5,000
4622/06 04:42RIMBUNJ4Y4murni besar50,000
4722/06 04:42DNX77murni besar50,000
4822/06 04:42RIMBUNJ4Y4murni besar50,000
4922/06 04:42SINGO52murni besar50,000
5022/06 04:42RIMBUNJ4Y4balak200,000